Weather in Bychikha

Russia / Khabarovsk Krai     48°18′01″N   134°49′38″E
temp.,
°C
wind,
m/s
gust,
m/s
humid.,
%
clouds,
%
prec.,
mm/h
press.,
hPa
HPBL,
m
26 february, fri
fri2601:00−24s12942 0.0 102520
04:00−24s22951 0.0 102521
07:00−24ssw229685 0.0 102627
10:00−21ssw239588 0.0 1027145
13:00−17sw338875 0.0 1028317
16:00−16sw249078 0.0 1028356
19:00−21ssw229769 0.0 103121
22:00−21s229535 0.0 103222
27 february, sat
sat2701:00−21s23940 0.0 103527
04:00−22s23950 0.0 103525
07:00−23s33970 0.0 103633
10:00−18s34930 0.0 1035144
13:00−13s238254 0.0 1033292
16:00−11sse238277 0.0 1029364
19:00−12se239099 0.0 102681
22:00−12s228899 0.0 102439
28 february, sun
sun2801:00−10s2786100 0.0 1021285
04:00−7ssw41495100 1.3 1018667
07:00−5sw41396100 2.8 1018721
10:00−6wsw4694100 4.5 1017432
13:00−7w4890100 0.0 1019514
16:00−7w5982100 0.1 1019735
19:00−12wsw3685100 0.0 1022150
22:00−16w2388100 0.0 102542
1 march, mon
mon101:00−20w239138 0.0 102633
04:00−22wsw238920 0.0 102934
07:00−23wsw34890 0.0 103152
10:00−20w48790 0.0 1032289
13:00−16w59640 0.0 1032997
16:00−14w58700 0.0 10321248
19:00−19sw358318 0.0 103261
22:00−22sw239027 0.0 103328
2 march, tue
tue201:00−23w129270 0.0 103320
04:00−24w118558 0.0 103320
07:00−25sw11750 0.0 103420
10:00−20wsw23790 0.0 1033148
13:00−17w24700 0.0 1032504
16:00−16wsw23720 0.0 1031464
19:00−21ssw22860 0.0 103020
22:00−22s22820 0.0 103222